Weather observations for the past three days for
La Grange, Fayette Regional Air Center Airport
Metric (Imperial)
Date Time (cdt) Wind (kph) Vis. (km) Weather Sky Cond. Temperature (ºC) Relative Humidity Wind Chill (°C) Heat Index (°C) Pressure Precipitation (cm)
Air Dwpt 6 hour altimeter (cm) sea level (mb) 1 hr 3 hr 6 hr
Max. Min.
31 19:35 SE 19 16.09 Fair CLR 34.2 20.2 44% 37 75.97 0.0
31 19:15 E 15 16.09 Fair CLR 35.1 19.8 41% 38 75.95 0.0
31 18:55 E 17 16.09 Fair CLR 36.5 17 37.6 33.9 31% 37 75.95 0.0
31 18:35 SE 11 16.09 Fair CLR 36.8 14.8 27% 37 75.95 0.0
31 18:15 SE 19 16.09 Fair CLR 37 15.1 27% 37 75.95 0.0
31 17:55 SE 11 16.09 Fair CLR 37 16.2 29% 37 75.97 0.0
31 17:35 Vrbl 6 16.09 Fair CLR 37.1 15.8 28% 37 75.97 0.0
31 17:15 SE 19 16.09 Fair CLR 37.5 15.4 27% 38 75.97 0.0
31 16:55 S 13 16.09 Fair CLR 37.2 16.6 29% 38 76 0.0
31 16:35 SE 11 16.09 Fair CLR 36.8 17.4 32% 38 76 0.0
31 16:15 SE 13 16.09 Fair CLR 37.2 17.7 32% 39 76.02 0.0
31 15:55 Vrbl 9 16.09 Fair CLR 36.8 19 35% 39 76.05 0.0
31 15:35 Vrbl 7 16.09 Fair CLR 35.8 18.8 37% 38 76.07 0.0
31 15:15 Vrbl 9 16.09 Fair CLR 36.3 19.3 37% 39 76.07 0.0
31 14:55 Vrbl 9 16.09 Fair CLR 36.6 19.6 37% 39 76.12 0.0
31 14:35 S 11 16.09 A Few Clouds FEW060 36.6 19.9 38% 39 76.15 0.0
31 14:15 NE 6 16.09 Partly Cloudy SCT060 34.5 19.9 42% 37 76.15 0.0
31 13:55 E 11 16.09 Partly Cloudy SCT055 35.3 20.6 42% 38 76.17 0.0
31 13:35 Vrbl 11 16.09 Mostly Cloudy BKN055 34.8 21.2 45% 38 76.2 0.0
31 13:15 SE 13 16.09 A Few Clouds FEW060 34.7 20.9 44% 38 76.23 0.0
31 12:55 Calm 16.09 Fair CLR 34.4 21.2 34.7 23.4 46% 38 76.23 0.0
31 12:35 S 13 16.09 Fair CLR 34.2 20.7 45% 37 76.25 0.0
31 12:15 E 11 16.09 Fair CLR 33.6 21.1 48% 37 76.28 0.0
31 11:55 SE 13 16.09 Fair CLR 33.3 21.5 50% 37 76.28 0.0
31 11:35 SE 13 16.09 Fair CLR 32.8 22.2 54% 37 76.28 0.0
31 11:15 Vrbl 9 16.09 Fair CLR 32.2 22.9 58% 37 76.28 0.0
31 10:55 SE 9 16.09 Fair CLR 31.4 23.4 63% 36 76.28 0.0
31 10:35 S 7 16.09 A Few Clouds FEW020 30.2 22.9 65% 34 76.28 0.0
31 10:15 Vrbl 6 16.09 Partly Cloudy SCT018 29.6 24.7 75% 35 76.28 0.0
31 09:55 Vrbl 6 16.09 Overcast OVC016 29.8 25.1 76% 36 76.28 0.0
31 09:35 SW 6 16.09 Mostly Cloudy BKN018 28.7 25 80% 34 76.28 0.0
31 09:15 Calm 16.09 Fair CLR 27.9 25 84% 33 76.25 0.0
31 08:55 Calm 16.09 Fair CLR 26.8 24.8 89% 30 76.25 0.0
31 08:35 Calm 16.09 Fair CLR 25.9 24.6 93% 28 76.25 0.0
31 08:15 Calm 16.09 Fair CLR 25.1 24.1 94% 26 76.23 0.0
31 07:55 Calm 16.09 Fair CLR 24.1 23.4 96% 23 76.2 0.0
31 07:35 Calm 16.09 Fair CLR 23.6 23.1 97% 76.2 0.0
31 07:15 Calm 16.09 Fair CLR 23.7 23 96% 76.17 0.0
31 06:55 Calm 12.87 Fair CLR 23.6 23.4 26.2 23.3 99% 76.17 0.0
31 06:35 Calm 16.09 Fair CLR 23.3 23 98% 76.17 0.0
31 06:15 Calm 16.09 Fair CLR 23.5 23 97% 76.17 0.0
31 05:55 Calm 16.09 Fair CLR 23.6 23.3 98% 76.15 0.0
31 05:35 Calm 14.48 Fair CLR 23.6 23.3 98% 76.15 0.0
31 05:15 Calm 14.48 Fair CLR 24 23.5 97% 23 76.15 0.0
31 04:55 Calm 16.09 Fair CLR 24.5 23.6 95% 24 76.15 0.0
31 04:35 Calm 14.48 Fair CLR 24.4 23.7 96% 24 76.15 0.0
31 04:15 S 6 12.87 Fair CLR 24.7 23.8 95% 25 76.15 0.0
31 03:55 S 6 16.09 Fair CLR 24.5 23.5 94% 24 76.15 0.0
31 03:35 S 6 14.48 Fair CLR 24.7 23.7 94% 25 76.15 0.0
31 03:15 Calm 16.09 Fair CLR 25 23.8 93% 26 76.17 0.0
31 02:55 S 9 16.09 Fair CLR 25 23.8 93% 26 76.15 0.0
31 02:35 S 7 16.09 Fair CLR 25 23.8 93% 26 76.17 0.0
31 02:15 SE 7 16.09 Fair CLR 25.1 23.9 93% 26 76.17 0.0
31 01:55 SE 6 16.09 Fair CLR 25.4 24 92% 27 76.2 0.0
31 01:35 SE 7 16.09 Fair CLR 25.8 24.1 90% 28 76.2 0.0
31 01:15 SE 9 16.09 Fair CLR 25.9 24 89% 28 76.17 0.0
31 00:55 S 9 16.09 Fair CLR 26.3 24.1 32.6 26.3 88% 29 76.17 0.0
31 00:35 S 11 16.09 Fair CLR 26.6 24.1 86% 29 76.17 0.0
31 00:15 S 11 16.09 Fair CLR 27 24.1 84% 30 76.17 0.0
30 23:55 S 11 16.09 Fair CLR 27.4 24 82% 31 76.15 0.0
30 23:35 S 13 16.09 Fair CLR 27.7 24 80% 31 76.17 0.0
30 23:15 S 13 16.09 Fair CLR 28.1 23.7 77% 32 76.15 0.0
30 22:55 S 9 16.09 Fair CLR 28.5 23.4 74% 32 76.15 0.0
30 22:35 S 11 16.09 Fair CLR 28.7 23.2 72% 32 76.12 0.0
30 22:15 S 13 16.09 Fair CLR 29 23 70% 33 76.1 0.0
30 21:55 S 11 16.09 Fair CLR 29.3 22.6 67% 33 76.07 0.0
30 21:35 S 13 16.09 Fair CLR 29.7 22.4 65% 33 76.07 0.0
30 21:15 S 9 16.09 Fair CLR 30 22.1 63% 33 76.05 0.0
30 20:55 SE 7 16.09 Fair CLR 30.2 22.1 62% 34 76 0.0
30 20:35 SE 7 16.09 Fair CLR 30.4 22.1 61% 34 76 0.0
30 20:15 SE 9 16.09 Fair CLR 31.1 21.9 58% 35 76 0.0
30 19:55 SE 9 16.09 Fair CLR 31.8 21.7 55% 35 75.97 0.0
30 19:35 SE 17 16.09 Fair CLR 32.2 21.5 53% 36 75.97 0.0
30 19:15 S 19 16.09 Fair CLR 32.5 21.4 52% 36 75.97 0.0
30 18:55 S 26 G 33 14.48 Fair CLR 33.7 21.8 37.4 33.1 50% 38 75.97 0.0
30 18:35 SE 24 14.48 Fair CLR 34.4 21.4 47% 38 75.97 0.0
30 18:15 SE 17 16.09 A Few Clouds FEW080 35.5 19.7 39% 38 75.97 0.0
30 17:55 SE 17 G 28 16.09 A Few Clouds FEW075 36.5 19.5 37% 39 75.95 0.0
30 17:35 E 13 16.09 A Few Clouds FEW075 36.8 19.3 36% 39 75.95 0.0
30 17:15 SE 13 16.09 Partly Cloudy FEW075 SCT090 36.6 19.3 36% 39 75.95 0.0
30 16:55 SE 9 16.09 Fair CLR 36.8 18.9 35% 39 75.97 0.0
30 16:35 SE 13 16.09 Fair CLR 36.7 18.8 35% 39 75.97 0.0
30 16:15 SE 19 16.09 Fair CLR 36.4 19.7 38% 39 76 0.0
30 15:55 S 15 16.09 Fair CLR 36.8 19.1 35% 39 76.02 0.0
30 15:35 SE 13 14.48 A Few Clouds FEW060 35.4 20 40% 38 76.05 0.0
30 15:15 S 19 16.09 Partly Cloudy SCT060 36.5 20.1 38% 40 76.07 0.0
30 14:55 Vrbl 9 16.09 A Few Clouds FEW065 36.6 20.6 39% 40 76.1 0.0
30 14:35 Vrbl 6 16.09 A Few Clouds FEW070 34.8 20.6 43% 38 76.12 0.0
30 14:15 Vrbl 11 16.09 Fair CLR 35.3 20.9 43% 39 76.15 0.0
30 13:55 SE 11 16.09 A Few Clouds FEW050 34.8 20.8 44% 38 76.17 0.0
30 13:35 SE 11 16.09 Partly Cloudy SCT050 34.2 20.9 46% 37 76.2 0.0
30 13:15 Vrbl 7 14.48 Partly Cloudy SCT050 33.2 21.1 49% 36 76.23 0.0
30 12:55 Vrbl 11 16.09 A Few Clouds FEW049 32.5 21.5 33.9 23.3 52% 36 76.25 0.0
30 12:35 SE 13 16.09 A Few Clouds FEW044 33.2 21.6 51% 37 76.28 0.0
30 12:15 Vrbl 6 16.09 Mostly Cloudy BKN042 32.6 22.1 54% 37 76.3 0.0
30 11:55 SW 9 16.09 Mostly Cloudy BKN042 31.8 22.4 57% 36 76.3 0.0
30 11:35 S 11 16.09 Mostly Cloudy SCT034 BKN045 31.3 22.1 58% 35 76.33 0.0
30 11:15 W 7 16.09 Mostly Cloudy BKN034 BKN045 31 22.8 62% 35 76.33 0.0
30 10:55 S 6 16.09 Mostly Cloudy FEW025 BKN030 30.8 22.9 63% 35 76.33 0.0
30 10:35 Vrbl 6 16.09 Mostly Cloudy SCT020 BKN027 BKN035 30.5 23.4 66% 35 76.33 0.0
30 10:15 S 9 16.09 Mostly Cloudy BKN018 30.2 24.3 71% 36 76.33 0.0
30 09:55 S 6 16.09 A Few Clouds FEW014 27.8 24.7 83% 32 76.33 0.0
30 09:35 S 7 16.09 A Few Clouds FEW012 28 24.9 83% 33 76.3 0.0
30 09:15 Calm 16.09 Partly Cloudy SCT003 26.8 25.1 90% 30 76.3 0.0
30 08:55 Calm 9.66 Fog/Mist OVC002 25.1 24.9 99% 26 76.3 0.0
30 08:35 Calm 2.01 Fog/Mist OVC002 24.7 24.5 99% 25 76.3 0.0
30 08:15 Calm 0.80 Fog VV002 24.5 24.4 99% 24 76.28 0.0
30 07:55 S 7 2.01 Fog/Mist OVC002 24.6 24.4 99% 24 76.28 0.0
30 07:35 Calm 14.48 Overcast OVC003 24.4 24 98% 24 76.28 0.0
30 07:15 SE 6 14.48 Mostly Cloudy BKN004 23.5 23.2 98% 76.25 0.0
30 06:55 Calm 14.48 Fair CLR 23.6 23.1 25.8 23.5 97% 76.23 0.0
30 06:35 Calm 14.48 Fair CLR 23.5 23.2 98% 76.23 0.0
30 06:15 Calm 16.09 Fair CLR 23.8 23.3 97% 76.23 0.0
30 05:55 Calm 16.09 Fair CLR 23.9 23.3 96% 23 76.2 0.0
30 05:35 Calm 16.09 Fair CLR 24 23.3 96% 23 76.2 0.0
30 05:15 Calm 14.48 Fair CLR 24 23.4 96% 23 76.2 0.0
30 04:55 S 6 14.48 Fair CLR 24.1 23.4 96% 23 76.2 0.0
30 04:35 S 6 14.48 Fair CLR 24.2 23.5 96% 23 76.17 0.0
30 04:15 S 6 14.48 Fair CLR 24.2 23.4 95% 24 76.17 0.0
30 03:55 Calm 14.48 Fair CLR 24.4 23.4 94% 24 76.2 0.0
30 03:35 Calm 16.09 Fair CLR 24.5 23.5 94% 24 76.2 0.0
30 03:15 Calm 16.09 Fair CLR 24.7 23.5 93% 25 76.23 0.0
30 02:55 S 6 16.09 Fair CLR 24.8 23.4 92% 25 76.23 0.0
30 02:35 S 7 16.09 Fair CLR 25 23.6 92% 26 76.23 0.0
30 02:15 S 7 16.09 Fair CLR 25.1 23.5 91% 26 76.23 0.0
30 01:55 S 6 16.09 Fair CLR 25.4 23.4 89% 27 76.23 0.0
30 01:35 S 6 16.09 Fair CLR 25.3 23.5 90% 26 76.23 0.0
30 01:15 S 7 16.09 Fair CLR 25.6 23.5 88% 27 76.23 0.0
30 00:55 S 7 16.09 Fair CLR 25.9 23.5 35.4 25.9 87% 28 76.23 0.0
30 00:35 S 7 16.09 Fair CLR 26.3 23.4 84% 28 76.23 0.0
30 00:15 S 7 16.09 Fair CLR 26.7 23.5 83% 29 76.23 0.0
29 23:55 S 11 16.09 Fair CLR 26.9 23.4 81% 30 76.23 0.0
29 23:35 S 9 16.09 Fair CLR 27 23.5 81% 30 76.23 0.0
29 23:15 S 9 16.09 Fair CLR 27.3 23.4 79% 30 76.23 0.0
29 22:55 S 9 16.09 Fair CLR 27.8 23.3 77% 31 76.2 0.0
29 22:35 S 9 16.09 Fair CLR 28.1 23.3 75% 32 76.2 0.0
29 22:15 SE 11 16.09 Fair CLR 28.4 23.3 74% 32 76.17 0.0
29 21:55 SE 11 16.09 Fair CLR 28.9 23.2 71% 33 76.15 0.0
29 21:35 S 11 16.09 Fair CLR 29.1 23.2 71% 33 76.15 0.0
29 21:15 SE 11 16.09 Fair CLR 29.5 23 68% 33 76.12 0.0
29 20:55 SE 13 16.09 Fair CLR 30 23.1 67% 34 76.1 0.0
29 20:35 SE 15 16.09 Fair CLR 30.5 23 64% 35 76.07 0.0
29 20:15 SE 15 16.09 A Few Clouds FEW070 31.5 23.1 61% 36 76.07 0.0
29 19:55 S 20 G 28 16.09 Partly Cloudy SCT070 33.2 21.8 51% 37 76.07 0.0
29 19:35 SE 9 16.09 Fair CLR 34.1 19.4 42% 36 76.05 0.0
29 19:15 SE 11 14.48 Fair CLR 35 18.9 39% 37 76.05 0.0
29 18:55 SE 15 14.48 Fair CLR 35.7 19 36.9 32.9 37% 38 76.05 0.0
29 18:35 SE 9 16.09 Fair CLR 35.9 19.3 38% 38 76.05 0.0
29 18:15 SE 11 16.09 Fair CLR 36.1 19.3 37% 38 76.05 0.0
29 17:55 E 15 16.09 Fair CLR 36.3 19.5 37% 39 76.05 0.0
29 17:15 Vrbl 9 14.48 Fair CLR 36 19.5 38% 38 76.05 0.0
29 16:55 SE 11 16.09 Fair CLR 36.4 19.6 37% 39 76.07 0.0
29 16:35 S 11 16.09 Fair CLR 36.5 20.4 39% 40 76.07 0.0
29 16:15 SE 13 16.09 Fair CLR 36.4 20.5 39% 40 76.1 0.0
29 15:55 SE 11 14.48 A Few Clouds FEW060 35.8 20.7 41% 39 76.12 0.0
29 15:35 Vrbl 7 16.09 A Few Clouds FEW060 34.9 20.8 44% 38 76.15 0.0
29 15:15 S 7 16.09 A Few Clouds FEW060 36.2 20.2 39% 39 76.17 0.0
29 14:55 S 20 G 30 16.09 Partly Cloudy SCT060 35.9 21.4 43% 40 76.23 0.0
29 14:35 SE 13 16.09 Partly Cloudy SCT055 35.6 21.1 43% 39 76.23 0.0
29 14:15 Vrbl 11 16.09 Fair CLR 35.1 21.5 45% 39 76.25 0.0
29 13:55 Vrbl 6 16.09 A Few Clouds FEW049 34.6 21.1 45% 38 76.3 0.0
29 13:35 S 13 14.48 Partly Cloudy SCT047 34.5 21.2 46% 38 76.3 0.0
29 13:15 Vrbl 7 16.09 A Few Clouds FEW044 33.4 22.2 52% 38 76.33 0.0
29 12:55 SE 9 16.09 Fair CLR 33.3 22.9 33.4 22.9 54% 38 76.35 0.0
29 12:35 SE 11 16.09 Fair CLR 32.7 22.5 55% 37 76.38 0.0
29 11:15 S 7 16.09 A Few Clouds FEW025 30.3 23.9 69% 35 76.4 0.0
29 10:55 Calm 16.09 Partly Cloudy SCT021 29.9 24.5 73% 35 76.4 0.0
29 10:35 Calm 16.09 Partly Cloudy SCT019 29.9 25 75% 36 76.38 0.0
29 10:15 Calm 16.09 Partly Cloudy FEW014 SCT020 29.1 25.1 79% 35 76.38 0.0
29 09:55 Vrbl 6 16.09 Fair CLR 28.4 25.5 84% 34 76.38 0.0
29 09:35 S 6 16.09 Fair CLR 27.9 25.3 86% 33 76.38 0.0
29 09:15 S 6 16.09 Fair CLR 26.6 24.6 89% 30 76.38 0.0
29 08:55 Vrbl 6 16.09 Fair CLR 25.6 23.8 90% 27 76.38 0.0
29 08:35 SE 6 16.09 Fair CLR 25.2 23.3 89% 26 76.38 0.0
29 08:15 Calm 14.48 Fair CLR 24.3 22.7 91% 24 76.35 0.0
29 07:55 Calm 16.09 Fair CLR 23.7 22.6 94% 76.35 0.0
29 07:35 Calm 16.09 Fair CLR 23.2 22.4 95% 76.33 0.0
29 07:15 Calm 16.09 Fair CLR 23 22.3 96% 76.33 0.0
29 06:55 Calm 16.09 Fair CLR 23 22.3 24.1 22.9 96% 76.33 0.0
29 06:35 Calm 16.09 Fair CLR 22.9 22.2 96% 76.33 0.0
29 06:15 Calm 16.09 Fair CLR 23.1 22.2 95% 76.3 0.0
29 05:55 Calm 16.09 Fair CLR 23.2 22.7 97% 76.3 0.0
29 05:35 Calm 16.09 Fair CLR 23.1 22.6 97% 76.3 0.0
29 05:15 Calm 16.09 A Few Clouds FEW015 23 22.5 97% 76.3 0.0
29 04:55 Calm 16.09 Fair CLR 23.1 22.6 97% 76.3 0.0
29 04:35 Calm 16.09 Fair CLR 23.1 22.5 96% 76.3 0.0
29 04:15 Calm 16.09 Fair CLR 23.2 22.5 96% 76.3 0.0
29 03:55 Calm 16.09 Fair CLR 23.4 22.8 96% 76.3 0.0
29 03:35 Calm 14.48 Fair CLR 23.3 23 98% 76.28 0.0
29 03:15 Calm 16.09 Fair CLR 23.4 22.9 97% 76.3 0.0
29 02:55 Calm 16.09 Fair CLR 23.4 22.9 97% 76.3 0.0
29 02:35 Calm 16.09 Fair CLR 23.4 22.8 96% 76.28 0.0
29 02:15 Calm 16.09 Fair CLR 23.7 22.6 94% 76.28 0.0
29 01:55 Calm 16.09 Fair CLR 23.8 22.8 94% 76.28 0.0
29 01:35 Calm 16.09 Fair CLR 23.6 22.7 95% 76.28 0.0
29 01:15 Calm 16.09 Fair CLR 24 22.9 94% 23 76.28 0.0
29 00:55 Calm 16.09 Fair CLR 23.9 23.1 24.4 23.7 95% 23 76.28 0.0
29 00:35 E 6 16.09 Fair CLR 23.8 23.1 96% 76.25 0.0
29 00:15 Calm 16.09 Fair CLR 24.1 22.9 93% 24 76.28 0.0
28 23:55 NE 6 16.09 Fair CLR 23.9 22.7 93% 23 76.28 0.0
28 23:35 Calm 16.09 Fair CLR 24.2 22.9 92% 24 76.28 0.0
28 23:15 Calm 16.09 Fair CLR 24.1 22.5 91% 24 76.3 0.0
28 22:55 Calm 16.09 Fair CLR 24.1 23.1 94% 23 76.3 0.0
28 22:35 Calm 16.09 Fair CLR 24.1 23 94% 23 76.3 0.0
28 22:15 Calm 16.09 Fair CLR 24 23 94% 23 76.28 0.0
28 21:55 Calm 16.09 Fair CLR 24.1 22.4 90% 24 76.2 0.0
28 21:35 Calm 16.09 Fair CLR 24.2 21.8 87% 24 76.17 0.0
28 21:15 NW 6 16.09 Fair CLR 24.1 22.1 89% 24 76.15 0.0
28 20:55 Calm 16.09 Fair CLR 24.3 22.2 88% 24 76.1 0.0
28 20:35 Calm 16.09 A Few Clouds FEW160 24 22.4 91% 24 76.1 0.0
28 20:15 NW 9 14.48 Mostly Cloudy FEW075 SCT160 BKN190 24.1 22.3 90% 24 76.17 0.0
28 19:55 Calm 16.09 Thunderstorm in Vicinity BKN200 24.1 21.9 88% 24 76.15 0.0
Date Time (cdt) Wind (kph) Vis. (km) Weather Sky Cond. Air Dwpt Max. Min. Relative Humidity Wind Chill (°C) Heat Index (°C) altimeter (cm) sea level (mb) 1 hr 3 hr 6 hr
6 hour
Temperature (ºC) Pressure Precipitation (cm)